Regional Weather Roundup
Issued by NWS Wakefield, VA

Home | Current Version | Previous Version | Graphics & Text | Print | Product List | Glossary On
Versions: 1 2 3 4 5 6 7 8 9 10 11 12 13 14 15 16 17 18 19 20 21 22 23 24 25 26 27 28 29 30 31 32 33 34 35 36 37 38 39 40 41 42 43 44 45 46 47 48
000
ASUS41 KAKQ 212210
RWRAKQ

REGIONAL WEATHER ROUNDUP
NATIONAL WEATHER SERVICE WAKEFIELD VA
500 PM EST SUN DEC 21 2014

Note: "fair" indicates few or no clouds below 12,000 feet with no
significant weather and/or obstructions to visibility. * = Denotes
station may not report precipitation (e.g., rain,snow,etc.),
thunder or fog.

VAZ042-051-052>054-056-212300-
NORTHERN VIRGINIA

CITY           SKY/WX    TMP DP  RH WIND       PRES   REMARKS
WASH NATIONAL  PTCLDY    42  23  46 CALM      30.33R
DULLES         PTCLDY    36  24  62 CALM      30.31R
FORT BELVOIR   CLEAR     39  25  56 CALM      30.32R HAZE
QUANTICO       CLEAR     40  27  59 CALM      30.32R
FREDERICKSBRG* CLEAR     41  28  58 SE3       30.30R
STAFFORD*      CLEAR     37  25  60 E3        30.34S
WARRENTON      CLEAR     37  31  77 E3        30.28F
CULPEPER*      CLEAR     37  28  70 CALM      30.29F
MANASSAS*      CLEAR     39  27  60 NE3       30.31R
LEESBURG*      CLEAR     37  28  70 MISG      30.31R
WINCHESTER     CLEAR     37  23  56 E3        30.26F
FRONT ROYAL*   CLEAR     36  27  69 CALM      30.25F
LURAY*         CLEAR     39  30  70 NE3       30.24F
$$

VAZ048-049-060>072-079>083-212300-
CENTRAL AND SOUTH CENTRAL VIRGINIA

CITY           SKY/WX    TMP DP  RH WIND       PRES   REMARKS
RICHMOND       PTCLDY    43  26  51 E3        30.28S
CHESTERFIELD*  CLEAR     43  19  39 NE3       30.29S
PETERSBURG*    CLEAR     40  29  65 NE3       30.29R
HANOVER        CLEAR     38  28  67 CALM      30.30R
TAPPAHANNOCK*  CLEAR     39  24  54 CALM      30.31R
QUINTON*       CLEAR     39  28  65 CALM      30.29S
CHARLOTTSVILLE CLEAR     41  27  57 CALM      30.26S
GORDONSVILLE*  CLEAR     37  27  66 CALM      30.27S
ORANGE*        CLEAR     41  28  60 CALM      30.29S
LOUISA*        CLEAR     39  28  65 E3        30.26S
BUMPASS*       CLEAR     37  28  71 CALM      30.28S
FARMVILLE*     CLEAR     43  29  57 CALM      30.25S
CREWE*         CLEAR     43  28  55 NE3       30.26S
FORT PICKETT*  CLEAR     40  29  64 E3        30.27S
CHASE CITY*    CLEAR     43  34  69 CALM      30.25S
CLARKSVILLE*   CLEAR     43  32  65 CALM      30.25S
SOUTH HILL*    CLEAR     40  31  69 CALM      30.32S
LAWRENCEVILLE* CLEAR     41  31  67 CALM      30.27R
EMPORIA*       CLEAR     41  32  70 CALM      30.30S
$$

VAZ088>098-212300-
SOUTHEAST VIRGINIA

CITY           SKY/WX    TMP DP  RH WIND       PRES   REMARKS
NORFOLK        CLEAR     38  29  70 CALM      30.30R
VIRGINIA BEACH PTCLDY    39  26  59 NE5       30.30R
NORFOLK NAVAL  PTCLDY    42  30  62 NE6       30.32R
WEST POINT*    CLEAR     42  26  52 NE3       30.32R
SALUDA*        FAIR      37  30  75 CALM      30.31R
NEWPORT NEWS   CLEAR     39  31  72 E5        30.31R
LANGLEY AFB    CLEAR     37  30  76 NE5       30.32R
FORT EUSTIS    CLEAR     41  29  63 E5        30.29R
WILLIAMSBURG*  CLEAR     43  32  65 E3        30.31R
HR EXEC AP*    CLEAR     39  28  65 NE3       30.32R
FRANKLIN*      CLEAR     39  30  70 E5        30.29S
WAKEFIELD      CLEAR     39  30  70 CALM      30.29R
$$

VAZ020-022-025-037-045-212300-
WEST CENTRAL AND SOUTHWEST VIRGINIA

CITY           SKY/WX    TMP DP  RH WIND       PRES   REMARKS
STAUNTON*      CLEAR     41  27  56 CALM      30.24S
WAYNESBORO*    CLEAR     37  26  64 SE3       30.22S
HOT SPRINGS VA CLEAR     34  26  72 S6        30.12S
LYNCHBURG      PTCLDY    40  29  64 CALM      30.25R
DANVILLE       CLOUDY    45  32  60 NE5       30.24S
SOUTH BOSTON*  CLEAR     43  31  63 CALM      30.25S
MARTINSVILLE   CLOUDY    44  34  69 E3        30.25S
ROANOKE        CLEAR     42  30  62 SE9       30.22F
BLACKSBURG     MOCLDY    40  30  67 E7        30.20F
DUBLIN*        CLOUDY    43  35  72 SE6       30.18R
MARION*        PTCLDY    42  34  72 E6        30.15F
HILLSVILLE*    CLOUDY    39  34  81 SE3       30.15S
RICHLANDS*     CLEAR     43  31  62 SE7       30.10F
WISE*          CLEAR     45  30  57 S3        30.10F
ABINGDON*      PTCLDY    47  35  62 SE6       30.10F
$$

MDZ021>025-VAZ099-100-212300-
SOUTHERN MARYLAND AND THE DELMARVA PENINSULA

CITY           SKY/WX    TMP DP  RH WIND       PRES   REMARKS
PATUXENT RIVER PTCLDY    35  25  66 CALM      30.32R
BAY BRIDGE APT   N/A     36  23  60 CALM      30.32R
LEONARDTOWN    CLEAR     36  28  75 CALM      30.33R
DOVER          CLEAR     33  25  71 N6        30.28R
GEORGETOWN     CLEAR     36  25  64 E5        30.31R
EASTON         CLEAR     37  27  65 CALM      30.34R
CAMBRIDGE      CLEAR     36  27  69 CALM      30.31R
SALISBURY      CLEAR     39  26  59 CALM      30.30R
OCEAN CITY     CLEAR     37  28  70 NE3       30.30R HAZE
WALLOPS ISLAND CLEAR     36  29  75 S3        30.31R
ACCOMACK*      CLEAR     36  28  75 NW3       30.30R
$$

NCZ012>017-030>032-212300-
NORTH CENTRAL AND EASTERN NORTH CAROLINA

CITY           SKY/WX    TMP DP  RH WIND       PRES   REMARKS
ROANOKE RAPIDS CLEAR     41  32  70 CALM      30.26S
RALEIGH        CLOUDY    46  34  62 NE6       30.24R
ELIZABETH CITY CLEAR     44  33  65 NE10      30.29R
AHOSKIE*       CLEAR     42  32  68 N3        30.27S
EDENTON*       CLEAR     43  35  71 E6        30.27R
CURRITUCK*     CLEAR     42  32  67 NE7       30.30R
KILL DEVIL HLS CLEAR     44  37  76 NE5       30.26R
MANTEO         CLEAR     43  37  77 NE9       30.27R
CAPE HATTERAS  CLOUDY    46  42  86 NE9G20    30.24S
TARBORO*       CLOUDY    46  32  57 N5        30.27R
GOLDSBORO      CLOUDY    46  41  81 NE2       30.22F
WASHINGTON     CLOUDY    46  34  63 NE5       30.26R
GREENVILLE     CLOUDY    46  34  61 E5        30.25F
NEW BERN       PTCLDY    46  35  65 N6        30.25R
WILMINGTON     CLOUDY    49  38  65 N5        30.20S
$$

VAZ048-212300-
ELSEWHERE

CITY           SKY/WX    TMP DP  RH WIND       PRES   REMARKS
HARRISBURG PA  MOCLDY    31  21  66 N6        30.31R
BALTIMORE      PTCLDY    36  23  59 SW3       30.30R
ANNAPOLIS      CLEAR     38  26  62 E5        30.31R
ANDREWS AFB    PTCLDY    39  23  52 NW3       30.31R
PHILADELPHIA   PTCLDY    37  21  52 NW8       30.32R
HENDERSON NC   PTCLDY    43  31  63 CALM      30.25S
GREENSBORO     MOCLDY    46  35  65 NE7       30.20F
ROCKY MOUNT    CLOUDY    47  32  56 NE3       30.26R
$$

VAZ100-212300-
MARINE

STATION/POSITION TIME  TEMP    WIND        PRES    WAVE   SWELL
                       AIR SEA DIR/SP/G            HT/PER HT/PER
                 (UTC) (F)     (DEG/KT/KT) (MB)    (FT/S) (FT/S)
CAPE MAY NJ      2200   38 44  320/  5/  8 1025.4S
LEWES DE         2200   38 42   10/ 11/ 12 1025.6S
15NM E FENWICK I 2200   38 45              1025.4F   2/ 3
OCEAN-CITY-INLET 2200   39 42   70/  4/  8 1025.4S
WACHAPREAGUE VA  2200   38 41  320/  2/  3 1025.9R
THOMAS POINT MD  2200   39 41   60/  4/  5 1027.7R
GOOSES REEF MD   2200   39     VRB  6/  8  1025.3S
COVE POINT MD    2200   37      40/  5/  6 1026.3R
SOLOMONS ISLAND  2200      43                N/A
BISHOPS HEAD MD  2200   38 39  350/  3/  4 1025.7R
POTOMAC MD       2200   39     240/  2/  2 1025.8R
CAMBRIDGE MD     2200   38 40  290/  3/  4 1025.9S
LEWISETTA VA     2200   39 41  100/  4/  5 1026.3R
RAPPAHANNOCK LGT 2200           20/  7/  8 1026.5R
STINGRAY PT      2200   39      60/  8/ 10 1026.6R
YORK RVR RNG VA  2200   39      60/  8/  9 1025.6R
YORKTOWN VA      2200   40 45   90/  6/  8 1025.9R
JAMESTOWN VA     2200   42     130/  4/  4   N/A
DOMINION TERM VA 2200   41      50/  2/  3 1026.2R
KIPTOPEKE VA     2200      49  120/  1/  2   N/A
CHES BAY BRIDGE  2200   40 45   40/  2/  4 1025.9R
CAPE HENRY VA    2200   40      50/  5/  6 1025.0R
CHESAPEAKE LGHT  2100   41      40/ 12/ 13 1025.6F
WILLOUBY STN VA  2200   40      30/  6/  7 1026.6R
S CRANEY ISL VA  2200           50/  6/  7 1026.0R
CAPE HENRY BUOY  2200      49                N/A     2/ 4
1ST LANDING BUOY 2200   41      70/  4/  6 1025.7R
CAPE CHARLES BUO 2200      47                N/A     2/10   2/10
64NM E OF VA BCH 2200   46 54   40/ 12/ 14 1024.5R   2/ 4   2/10
DUCK PIER NC     2200   44 46   30/ 13/ 14 1024.4R
44100 DUCK FRF   2200      51                N/A     3/ 4
44056 DUCK FRF   2200      46                N/A     2/ 3
OREGON INLET NC  2200   45 48   20/ 10/ 14 1024.6R
HATTERAS NC      2200   47 50   30/ 11/ 15 1024.0R
DIAMOND SHLS NC  2200   54                 1023.1F   3/ 5
CAPE LOOKOUT NC  2100   48      40/ 18/ 22 1023.0F
$$


USA.gov is the U.S. government's official web portal to all federal, state and local government web resources and services.